When you browse on this site, cookies collect data to enhance your experience and personalize the content and advertising you see.
Visit our Privacy Policy to learn more. By continuing to use the site, you agree to this use of cookies and data.
  • en France
  • Liste des pays
  • À 7 jours
  • Température de l'eau
  • Carte satellitaire
  • Carte météo
  • Widgets météo
  • user-avatar
    Se connecter

    Météo par heure à Ablis

    Ce jour, 17 Février, Dimanche

    Heure Température Précipitation Vent Pression Humidité
    00:00 +7°C° 0 mm 2 m/s 753 mmHg 75%
    01:00 +6°C° 0 mm 2 m/s 753 mmHg 76%
    02:00 +5°C° 0 mm 3 m/s 752 mmHg 77%
    03:00 +5°C° 0 mm 3 m/s 752 mmHg 77%
    04:00 +5°C° 0 mm 3 m/s 752 mmHg 77%
    05:00 +4°C° 0 mm 3 m/s 751 mmHg 76%
    06:00 +4°C° 0 mm 3 m/s 751 mmHg 75%
    07:00 +5°C° 0 mm 4 m/s 751 mmHg 68%
    08:00 +5°C° 0 mm 4 m/s 751 mmHg 62%
    09:00 +6°C° 0 mm 5 m/s 751 mmHg 56%
    10:00 +8°C° 0 mm 5 m/s 751 mmHg 53%
    11:00 +9°C° 0 mm 5 m/s 751 mmHg 50%
    12:00 +12°C° 0 mm 5 m/s 751 mmHg 47%
    13:00 +12°C° 0 mm 5 m/s 751 mmHg 48%
    14:00 +13°C° 0 mm 5 m/s 751 mmHg 50%
    15:00 +13°C° 0 mm 5 m/s 750 mmHg 51%
    16:00 +12°C° 0 mm 4 m/s 750 mmHg 57%
    17:00 +10°C° 0 mm 3 m/s 750 mmHg 63%
    18:00 +9°C° 0 mm 3 m/s 750 mmHg 69%
    19:00 +8°C° 0 mm 3 m/s 750 mmHg 70%
    20:00 +8°C° 0 mm 3 m/s 751 mmHg 72%
    21:00 +7°C° 0 mm 3 m/s 751 mmHg 73%
    22:00 +7°C° 0 mm 3 m/s 751 mmHg 75%
    23:00 +7°C° 0 mm 2 m/s 751 mmHg 77%

    Demain, 18 Février, Lundi

    Heure Température Précipitation Vent Pression Humidité
    00:00 +6°C° 0 mm 2 m/s 751 mmHg 78%
    01:00 +6°C° 0 mm 2 m/s 750 mmHg 80%
    02:00 +5°C° 0 mm 3 m/s 750 mmHg 82%
    03:00 +4°C° 0 mm 3 m/s 750 mmHg 84%
    04:00 +4°C° 0 mm 3 m/s 750 mmHg 85%
    05:00 +4°C° 0 mm 3 m/s 750 mmHg 86%
    06:00 +3°C° 0 mm 3 m/s 750 mmHg 86%
    07:00 +4°C° 0 mm 3 m/s 750 mmHg 81%
    08:00 +5°C° 0 mm 3 m/s 750 mmHg 76%
    09:00 +6°C° 0 mm 4 m/s 750 mmHg 71%
    10:00 +7°C° 0 mm 4 m/s 750 mmHg 68%
    11:00 +8°C° 0 mm 4 m/s 750 mmHg 65%
    12:00 +11°C° 0 mm 4 m/s 750 mmHg 62%
    13:00 +11°C° 0 mm 4 m/s 749 mmHg 62%
    14:00 +12°C° 0 mm 4 m/s 749 mmHg 63%
    15:00 +12°C° 0 mm 4 m/s 749 mmHg 63%
    16:00 +11°C° 0 mm 4 m/s 749 mmHg 69%
    17:00 +10°C° 0 mm 3 m/s 749 mmHg 75%
    18:00 +9°C° 0 mm 2 m/s 750 mmHg 81%
    19:00 +8°C° 0 mm 2 m/s 750 mmHg 84%
    20:00 +8°C° 0 mm 2 m/s 750 mmHg 86%
    21:00 +8°C° 0 mm 2 m/s 750 mmHg 88%
    22:00 +7°C° 0.1 mm 2 m/s 750 mmHg 89%
    23:00 +7°C° 0.1 mm 2 m/s 750 mmHg 91%

    Après-demain, 19 Février, Mardi

    Heure Température Précipitation Vent Pression Humidité
    00:00 +7°C° 0.1 mm 2 m/s 751 mmHg 92%
    01:00 +7°C° 0.1 mm 2 m/s 751 mmHg 93%
    02:00 +7°C° 0.1 mm 2 m/s 751 mmHg 94%
    03:00 +8°C° 0.1 mm 1 m/s 751 mmHg 95%
    04:00 +7°C° 0 mm 1 m/s 751 mmHg 95%
    05:00 +7°C° 0 mm 1 m/s 751 mmHg 94%
    06:00 +6°C° 0 mm 1 m/s 751 mmHg 94%
    07:00 +7°C° 0 mm 1 m/s 752 mmHg 91%
    08:00 +7°C° 0 mm 1 m/s 752 mmHg 87%
    09:00 +8°C° 0 mm 1 m/s 753 mmHg 84%
    10:00 +9°C° 0 mm 1 m/s 753 mmHg 77%
    11:00 +10°C° 0 mm 1 m/s 753 mmHg 71%
    12:00 +11°C° 0 mm 1 m/s 753 mmHg 65%
    13:00 +12°C° 0 mm 2 m/s 753 mmHg 63%
    14:00 +12°C° 0 mm 2 m/s 753 mmHg 60%
    15:00 +12°C° 0 mm 2 m/s 752 mmHg 58%
    16:00 +11°C° 0 mm 1 m/s 752 mmHg 61%
    17:00 +11°C° 0 mm 1 m/s 753 mmHg 63%
    18:00 +10°C° 0 mm 1 m/s 753 mmHg 66%
    19:00 +9°C° 0 mm 1 m/s 753 mmHg 70%
    20:00 +8°C° 0 mm 1 m/s 753 mmHg 73%
    21:00 +8°C° 0 mm 1 m/s 753 mmHg 76%
    22:00 +7°C° 0 mm 1 m/s 753 mmHg 80%
    23:00 +7°C° 0 mm 1 m/s 753 mmHg 83%

    20 Février, Mercredi

    Heure Température Précipitation Vent Pression Humidité
    00:00 +6°C° 0 mm 1 m/s 753 mmHg 87%
    01:00 +6°C° 0 mm 1 m/s 753 mmHg 88%
    02:00 +5°C° 0 mm 2 m/s 753 mmHg 89%
    03:00 +5°C° 0 mm 2 m/s 753 mmHg 90%
    04:00 +4°C° 0 mm 2 m/s 753 mmHg 90%
    05:00 +4°C° 0 mm 2 m/s 753 mmHg 91%
    06:00 +4°C° 0 mm 2 m/s 753 mmHg 92%
    07:00 +5°C° 0 mm 2 m/s 753 mmHg 89%
    08:00 +6°C° 0 mm 2 m/s 753 mmHg 86%
    09:00 +7°C° 0 mm 2 m/s 754 mmHg 83%
    10:00 +8°C° 0 mm 2 m/s 754 mmHg 78%
    11:00 +10°C° 0 mm 3 m/s 754 mmHg 73%
    12:00 +12°C° 0 mm 3 m/s 754 mmHg 68%
    13:00 +12°C° 0 mm 3 m/s 754 mmHg 66%
    14:00 +13°C° 0 mm 3 m/s 754 mmHg 65%
    15:00 +13°C° 0 mm 3 m/s 753 mmHg 64%
    16:00 +13°C° 0 mm 2 m/s 754 mmHg 69%
    17:00 +12°C° 0 mm 2 m/s 754 mmHg 75%
    18:00 +10°C° 0 mm 1 m/s 754 mmHg 81%
    19:00 +10°C° 0 mm 1 m/s 754 mmHg 83%
    20:00 +10°C° 0 mm 1 m/s 755 mmHg 85%
    21:00 +9°C° 0 mm 1 m/s 755 mmHg 86%
    22:00 +9°C° 0 mm 1 m/s 755 mmHg 87%
    23:00 +9°C° 0 mm 1 m/s 755 mmHg 88%

    21 Février, Jeudi

    Heure Température Précipitation Vent Pression Humidité
    00:00 +8°C° 0 mm 1 m/s 755 mmHg 89%
    01:00 +8°C° 0 mm 1 m/s 755 mmHg 90%
    02:00 +7°C° 0 mm 2 m/s 755 mmHg 91%
    03:00 +6°C° 0 mm 2 m/s 755 mmHg 91%
    04:00 +6°C° 0 mm 2 m/s 755 mmHg 92%
    05:00 +7°C° 0 mm 1 m/s 756 mmHg 92%
    06:00 +7°C° 0 mm 1 m/s 756 mmHg 93%
    07:00 +7°C° 0 mm 1 m/s 756 mmHg 90%
    08:00 +8°C° 0 mm 1 m/s 757 mmHg 87%
    09:00 +9°C° 0 mm 1 m/s 757 mmHg 84%
    10:00 +11°C° 0 mm 1 m/s 757 mmHg 76%
    11:00 +12°C° 0 mm 1 m/s 757 mmHg 68%
    12:00 +14°C° 0 mm 1 m/s 757 mmHg 59%
    13:00 +14°C° 0 mm 1 m/s 757 mmHg 57%
    14:00 +15°C° 0 mm 1 m/s 757 mmHg 54%
    15:00 +15°C° 0 mm 1 m/s 757 mmHg 51%
    16:00 +14°C° 0 mm 1 m/s 757 mmHg 57%
    17:00 +12°C° 0 mm 1 m/s 757 mmHg 63%
    18:00 +11°C° 0 mm 1 m/s 757 mmHg 69%
    19:00 +10°C° 0 mm 1 m/s 758 mmHg 71%
    20:00 +9°C° 0 mm 0 m/s 758 mmHg 74%
    21:00 +8°C° 0 mm 0 m/s 758 mmHg 76%
    22:00 +8°C° 0 mm 0 m/s 759 mmHg 77%
    23:00 +8°C° 0 mm 0 m/s 759 mmHg 78%

    22 Février, Vendredi

    Heure Température Précipitation Vent Pression Humidité
    00:00 +8°C° 0 mm 0 m/s 759 mmHg 79%
    01:00 +7°C° 0 mm 0 m/s 759 mmHg 80%
    02:00 +7°C° 0 mm 0 m/s 759 mmHg 81%
    03:00 +8°C° 0 mm 1 m/s 759 mmHg 82%
    04:00 +7°C° 0 mm 1 m/s 760 mmHg 83%
    05:00 +7°C° 0 mm 1 m/s 760 mmHg 84%
    06:00 +6°C° 0 mm 2 m/s 760 mmHg 85%
    07:00 +8°C° 0 mm 1 m/s 760 mmHg 81%
    08:00 +9°C° 0 mm 1 m/s 760 mmHg 77%
    09:00 +9°C° 0 mm 1 m/s 761 mmHg 74%
    10:00 +10°C° 0 mm 2 m/s 761 mmHg 68%
    11:00 +12°C° 0 mm 2 m/s 761 mmHg 62%
    12:00 +14°C° 0 mm 2 m/s 761 mmHg 56%
    13:00 +13°C° 0 mm 3 m/s 760 mmHg 56%
    14:00 +14°C° 0 mm 3 m/s 760 mmHg 56%
    15:00 +14°C° 0 mm 3 m/s 760 mmHg 56%
    16:00 +13°C° 0 mm 3 m/s 760 mmHg 62%
    17:00 +11°C° 0 mm 3 m/s 760 mmHg 68%
    18:00 +10°C° 0 mm 2 m/s 760 mmHg 74%
    19:00 +9°C° 0 mm 2 m/s 761 mmHg 78%
    20:00 +9°C° 0 mm 2 m/s 761 mmHg 82%
    21:00 +8°C° 0 mm 2 m/s 761 mmHg 86%
    22:00 +8°C° 0 mm 2 m/s 761 mmHg 88%
    23:00 +8°C° 0 mm 2 m/s 761 mmHg 89%
    Voir plus